TimeCDT,TemperatureF,Dew PointF,Humidity,Sea Level PressureIn,VisibilityMPH,Wind Direction,Wind SpeedMPH,Gust SpeedMPH,PrecipitationIn,Events,Conditions,WindDirDegrees,DateUTC
12:52 AM,53.1,19.9,27,29.98,10.0,SSE,12.7,23.0,N/A,,Clear,150,2011-11-05 05:52:00
1:52 AM,53.1,21.9,30,29.95,10.0,SSE,10.4,20.7,N/A,,Clear,160,2011-11-05 06:52:00
2:52 AM,52.0,21.9,31,29.94,10.0,South,12.7,-,N/A,,Clear,170,2011-11-05 07:52:00
3:52 AM,52.0,23.0,32,29.90,10.0,SSE,18.4,25.3,N/A,,Clear,160,2011-11-05 08:52:00
4:52 AM,52.0,23.0,32,29.89,10.0,SSE,19.6,26.5,N/A,,Clear,160,2011-11-05 09:52:00
5:52 AM,50.0,23.0,35,29.88,10.0,SSE,18.4,26.5,N/A,,Clear,160,2011-11-05 10:52:00
6:52 AM,51.1,21.9,32,29.89,10.0,South,15.0,25.3,N/A,,Clear,170,2011-11-05 11:52:00
7:52 AM,51.1,21.9,32,29.88,10.0,South,21.9,28.8,N/A,,Clear,180,2011-11-05 12:52:00
8:52 AM,51.1,23.0,33,29.88,10.0,SSE,21.9,32.2,N/A,,Clear,160,2011-11-05 13:52:00
9:52 AM,55.0,24.1,30,29.86,10.0,SSE,25.3,35.7,N/A,,Clear,160,2011-11-05 14:52:00
10:52 AM,57.9,25.0,28,29.85,10.0,South,33.4,39.1,N/A,,Clear,180,2011-11-05 15:52:00
11:52 AM,63.0,30.0,29,29.81,10.0,South,28.8,38.0,N/A,,Clear,170,2011-11-05 16:52:00
12:52 PM,64.0,30.0,28,29.81,10.0,South,18.4,34.5,N/A,,Clear,170,2011-11-05 17:52:00
1:52 PM,66.9,37.0,33,29.78,10.0,South,27.6,36.8,N/A,,Clear,180,2011-11-05 18:52:00
2:52 PM,71.1,42.1,35,29.74,10.0,South,26.5,38.0,N/A,,Clear,180,2011-11-05 19:52:00
3:52 PM,73.9,45.0,35,29.72,10.0,South,21.9,35.7,N/A,,Clear,180,2011-11-05 20:52:00
4:52 PM,73.9,46.9,38,29.71,10.0,South,23.0,28.8,N/A,,Clear,180,2011-11-05 21:52:00
5:52 PM,73.0,48.0,41,29.73,10.0,South,19.6,28.8,N/A,,Clear,170,2011-11-05 22:52:00
6:52 PM,70.0,50.0,49,29.75,10.0,SSE,12.7,-,N/A,,Clear,160,2011-11-05 23:52:00
7:52 PM,66.9,50.0,54,29.75,10.0,SSE,15.0,-,N/A,,Clear,160,2011-11-06 00:52:00
8:52 PM,66.0,51.1,59,29.76,10.0,SSE,16.1,24.2,N/A,,Clear,160,2011-11-06 01:52:00
9:52 PM,66.0,52.0,60,29.76,10.0,South,19.6,26.5,N/A,,Clear,170,2011-11-06 02:52:00
10:52 PM,64.9,55.0,70,29.78,10.0,South,21.9,27.6,N/A,,Clear,170,2011-11-06 03:52:00
11:52 PM,64.0,55.9,75,29.80,10.0,South,17.3,27.6,N/A,,Clear,180,2011-11-06 04:52:00